Regional Weather Roundup
Issued by NWS Goodland, KS

Home | Current Version | Previous Version | Text Only | Print | Product List | Glossary Off
Versions: 1 2 3 4 5 6 7 8 9 10 11 12 13 14 15 16 17 18 19 20 21 22 23 24 25 26 27 28 29 30 31 32 33 34 35 36 37 38 39 40 41 42 43 44 45 46 47 48 49 50

506
ASUS43 KGLD 101859
RWRGLD

GOODLAND FORECAST AREA HOURLY WEATHER ROUNDUP
NATIONAL WEATHER SERVICE GOODLAND KS
1200 PM MST SAT DEC 10 2016

...OFFICIAL OBSERVATIONS...

CITY           SKY/WX    TMP DP  RH WIND       PRES   REMARKS
GOODLAND KS    CLOUDY    35  26  69 S13       29.85F
HILL CITY KS   CLOUDY    36  22  56 S13       29.99F
IMPERIAL NEB   CLOUDY    27  21  78 SE9       29.87F
MCCOOK NEB     CLOUDY    27  21  78 SE14      29.94F WCI  16
AKRON CO       CLOUDY    36  25  64 NW8       29.79F
BURLINGTON CO  CLOUDY    51  22  31 S9        29.83F
LIMON CO       CLOUDY    60  19  20 S15       29.81F
$$

...UNOFFICIAL OBSERVATIONS...

CITY           SKY/WX    TMP DP  RH WIND       PRES   REMARKS
COLBY KS       SUNNY     32  27  80 S8        29.92F
LENORA KS        N/A     33  32  96 MISG        N/A
NORTON KS      MOSUNNY   34  19  55 SE9       29.97F
SHARON SPRINGS   N/A     35  29  80 S12         N/A
TRENTON NEB      N/A     27  32 100 S8          N/A
KIT CARSON CO    N/A     38  23  55 MISG        N/A
YUMA CO        FAIR      28  21  74 NE3       29.81F
$$




USA.gov is the U.S. government's official web portal to all federal, state and local government web resources and services.